Regional Weather Roundup
Issued by NWS

Home | Current Version | Previous Version | Text Only | Print | Product List | Glossary On
Versions: 1 2 3 4 5 6 7 8 9 10 11 12 13 14 15 16 17 18 19 20 21 22 23 24 25 26 27 28 29 30 31 32 33 34 35 36 37 38 39 40 41 42 43 44 45 46 47 48 49 50
000
ASUS43 KFSD 281002
RWRSD

WEATHER ROUNDUP FOR SOUTH DAKOTA
NATIONAL WEATHER SERVICE SIOUX FALLS SD
500 AM CDT THU MAY 28 2015

NOTE: "FAIR" INDICATES FEW OR NO CLOUDS BELOW 12,000 FEET WITH NO
SIGNIFICANT WEATHER AND/OR OBSTRUCTIONS TO VISIBILITY.


SDZ001>005-009-010-012>017-281100-
NORTHWEST AND NORTH CENTRAL SOUTH DAKOTA

CITY           SKY/WX    TMP DP  RH WIND       PRES   REMARKS
BUFFALO          N/A     53  51  93 W7        29.87R
FAITH            N/A     52  50  93 NW7       29.89R
MOBRIDGE       CLEAR     60  58  92 SE7       29.86F
$$

SDZ012>016-024>037-041>051-057-063-072>074-281100-
SOUTHWEST AND SOUTH CENTRAL SOUTH DAKOTA

CITY           SKY/WX    TMP DP  RH WIND       PRES   REMARKS
RAPID CTY ARPT LGT RAIN  55  53  93 NE3       29.92S
PIERRE         CLEAR     58  54  86 SE7       29.89F
CUSTER         MOCLDY    49  47  93 CALM      30.02S
ELLSWORTH AFB  LGT RAIN  57  56  95 NE13      29.93R
PHILIP         PTCLDY    53  52  96 CALM      29.90S
PINE RIDGE     PTCLDY    59  50  72 SW6       29.95R
WINNER         CLOUDY    64  56  75 S14       29.94F
$$

SDZ004>011-016>023-039-040-281100-
NORTHEAST SOUTH DAKOTA

CITY           SKY/WX    TMP DP  RH WIND       PRES   REMARKS
ABERDEEN       LGT RAIN  62  58  86 E6        29.93F
WATERTOWN      CLOUDY    61  52  72 S7        29.98F
BROOKINGS      CLOUDY    63  52  67 SE8       30.02S
$$

SDZ017-020-022-023-036>040-048>070-281100-
SOUTHEAST SOUTH DAKOTA

CITY           SKY/WX    TMP DP  RH WIND       PRES   REMARKS
SIOUX FALLS    MOCLDY    64  51  62 S7        30.02S
HURON            N/A    N/A N/A N/A MISG      29.95S
CHAMBERLAIN    CLOUDY    63  57  79 S10       29.95F
MITCHELL       MOCLDY    63  53  70 SE9       29.98S
YANKTON        CLOUDY    64  54  68 E3        30.00S
$$

ABBREVIATIONS USED IN REMARKS
   TC - TEMPERATURE IN CELSIUS
  WCI - WIND CHILL INDEX
   HX - HEAT INDEX
  VSB - VISIBILITY



USA.gov is the U.S. government's official web portal to all federal, state and local government web resources and services.